Year,Month,Day,Hour,Minute,Value (Times are PST for temperature in C)
2008,06,16,00,00,10.70
2008,06,16,00,01,10.70
2008,06,16,00,02,10.70
2008,06,16,00,03,10.70
2008,06,16,00,04,10.60
2008,06,16,00,05,10.60
2008,06,16,00,06,10.60
2008,06,16,00,07,10.60
2008,06,16,00,08,10.50
2008,06,16,00,09,10.50
2008,06,16,00,10,10.50
2008,06,16,00,11,10.50
2008,06,16,00,12,10.40
2008,06,16,01,02,9.60
2008,06,16,01,03,9.60
2008,06,16,01,04,9.60
2008,06,16,01,05,9.60
2008,06,16,01,06,9.60
2008,06,16,01,07,9.60
2008,06,16,01,08,9.60
2008,06,16,01,09,9.60
2008,06,16,01,10,9.60
2008,06,16,01,11,9.60
2008,06,16,01,12,9.50
2008,06,16,01,13,9.50
2008,06,16,01,14,9.50
2008,06,16,01,15,9.40
2008,06,16,01,16,9.40
2008,06,16,01,17,9.40
2008,06,16,01,18,9.40
2008,06,16,01,19,9.40
2008,06,16,01,20,9.30
2008,06,16,01,21,9.30
2008,06,16,01,22,9.30
2008,06,16,01,23,9.30
2008,06,16,01,24,9.30
2008,06,16,01,25,9.30
2008,06,16,01,26,9.30
2008,06,16,01,27,9.30
2008,06,16,01,28,9.20
2008,06,16,01,29,9.20
2008,06,16,01,30,9.20
2008,06,16,01,31,9.20
2008,06,16,01,32,9.10
2008,06,16,01,33,9.10
2008,06,16,01,34,9.10
2008,06,16,01,35,9.10
2008,06,16,01,36,9.10
2008,06,16,01,37,9.10
2008,06,16,01,38,9.10
2008,06,16,01,39,9.00
2008,06,16,01,40,9.00
2008,06,16,01,41,9.00
2008,06,16,01,42,9.00
2008,06,16,01,43,8.90
2008,06,16,01,44,8.90
2008,06,16,01,45,8.90
2008,06,16,01,46,8.90
2008,06,16,01,47,8.90
2008,06,16,01,48,8.90
2008,06,16,01,49,8.80
2008,06,16,01,50,8.80
2008,06,16,01,51,8.80
2008,06,16,01,52,8.80
2008,06,16,01,53,8.80
2008,06,16,01,54,8.80
2008,06,16,01,55,8.70
2008,06,16,01,56,8.70
2008,06,16,01,57,8.70
2008,06,16,01,58,8.70
2008,06,16,01,59,8.70
2008,06,16,02,00,8.60
2008,06,16,02,01,8.60
2008,06,16,02,02,8.60
2008,06,16,02,03,8.60
2008,06,16,02,04,8.60
2008,06,16,02,05,8.60
2008,06,16,02,06,8.50
2008,06,16,02,07,8.50
2008,06,16,02,08,8.50
2008,06,16,02,09,8.50
2008,06,16,02,10,8.50
2008,06,16,02,11,8.40
2008,06,16,02,12,8.40
2008,06,16,02,13,8.40
2008,06,16,02,14,8.40
2008,06,16,02,15,8.40
2008,06,16,02,16,8.30
2008,06,16,02,17,8.30
2008,06,16,02,18,8.30
2008,06,16,02,19,8.30
2008,06,16,02,20,8.20
2008,06,16,02,21,8.20
2008,06,16,02,22,8.20
2008,06,16,02,23,8.20
2008,06,16,02,24,8.20
2008,06,16,02,25,8.10
2008,06,16,02,26,8.10
2008,06,16,02,27,8.10
2008,06,16,02,28,8.10
2008,06,16,02,29,8.10
2008,06,16,02,30,8.10
2008,06,16,02,31,8.20
2008,06,16,02,32,8.20
2008,06,16,02,33,8.20
2008,06,16,02,34,8.20
2008,06,16,02,35,8.20
2008,06,16,02,36,8.20
2008,06,16,02,37,8.20
2008,06,16,02,38,8.20
2008,06,16,02,39,8.10
2008,06,16,02,40,8.10
2008,06,16,02,41,8.10
2008,06,16,02,42,8.10
2008,06,16,02,43,8.10
2008,06,16,02,44,8.10
2008,06,16,02,45,8.10
2008,06,16,02,46,8.10
2008,06,16,02,47,8.10
2008,06,16,02,48,8.10
2008,06,16,02,49,8.00
2008,06,16,02,50,8.00
2008,06,16,02,51,8.00
2008,06,16,02,52,8.00
2008,06,16,02,53,7.90
2008,06,16,02,54,7.90
2008,06,16,02,55,7.90
2008,06,16,02,56,7.90
2008,06,16,02,57,7.90
2008,06,16,02,58,7.90
2008,06,16,02,59,7.80
2008,06,16,03,00,7.80
2008,06,16,03,01,7.80
2008,06,16,03,02,7.80
2008,06,16,03,03,7.80
2008,06,16,03,04,7.80
2008,06,16,03,05,7.80
2008,06,16,03,06,7.70
2008,06,16,03,07,7.70
2008,06,16,03,08,7.70
2008,06,16,03,09,7.70
2008,06,16,03,10,7.70
2008,06,16,03,11,7.70
2008,06,16,03,12,7.70
2008,06,16,03,13,7.70
2008,06,16,03,14,7.70
2008,06,16,03,15,7.70
2008,06,16,03,16,7.70
2008,06,16,03,17,7.70
2008,06,16,03,18,7.70
2008,06,16,03,19,7.70
2008,06,16,03,20,7.70
2008,06,16,03,21,7.70
2008,06,16,03,22,7.70
2008,06,16,03,23,7.70
2008,06,16,03,24,7.70
2008,06,16,03,25,7.60
2008,06,16,03,26,7.60
2008,06,16,03,27,7.60
2008,06,16,03,28,7.60
2008,06,16,03,29,7.60
2008,06,16,03,30,7.60
2008,06,16,03,31,7.60
2008,06,16,03,32,7.60
2008,06,16,03,33,7.60
2008,06,16,03,34,7.60
2008,06,16,03,35,7.50
2008,06,16,03,36,7.50
2008,06,16,03,37,7.50
2008,06,16,03,38,7.50
2008,06,16,03,39,7.50
2008,06,16,03,40,7.40
2008,06,16,03,41,7.40
2008,06,16,03,42,7.40
2008,06,16,03,43,7.40
2008,06,16,03,44,7.40
2008,06,16,03,45,7.40
2008,06,16,03,46,7.40
2008,06,16,03,47,7.40
2008,06,16,03,48,7.40
2008,06,16,03,49,7.40
2008,06,16,03,50,7.40
2008,06,16,03,51,7.40
2008,06,16,03,52,7.40
2008,06,16,03,53,7.40
2008,06,16,03,54,7.40
2008,06,16,03,55,7.30
2008,06,16,03,56,7.30
2008,06,16,03,57,7.30
2008,06,16,03,58,7.30
2008,06,16,03,59,7.30
2008,06,16,04,00,7.30
2008,06,16,04,01,7.30
2008,06,16,04,02,7.30
2008,06,16,04,03,7.30
2008,06,16,04,04,7.30
2008,06,16,04,05,7.30
2008,06,16,04,06,7.30
2008,06,16,04,07,7.20
2008,06,16,04,08,7.30
2008,06,16,04,09,7.20
2008,06,16,04,10,7.20
2008,06,16,04,11,7.20
2008,06,16,04,12,7.20
2008,06,16,04,13,7.20
2008,06,16,04,14,7.20
2008,06,16,04,15,7.20
2008,06,16,04,16,7.20
2008,06,16,04,17,7.20
2008,06,16,04,18,7.20
2008,06,16,04,19,7.20
2008,06,16,04,20,7.20
2008,06,16,04,21,7.20
2008,06,16,04,22,7.10
2008,06,16,04,23,7.10
2008,06,16,04,24,7.10
2008,06,16,04,25,7.10
2008,06,16,04,26,7.10
2008,06,16,04,27,7.00
2008,06,16,04,28,7.00
2008,06,16,04,29,7.00
2008,06,16,04,30,7.00
2008,06,16,04,31,7.00
2008,06,16,04,32,6.90
2008,06,16,04,33,6.90
2008,06,16,04,34,6.90
2008,06,16,04,35,6.90
2008,06,16,04,36,6.80
2008,06,16,04,37,6.80
2008,06,16,04,38,6.80
2008,06,16,04,39,6.80
2008,06,16,04,40,6.70
2008,06,16,04,41,6.70
2008,06,16,04,42,6.70
2008,06,16,04,43,6.70
2008,06,16,04,44,6.70
2008,06,16,04,45,6.70
2008,06,16,04,46,6.70
2008,06,16,04,47,6.70
2008,06,16,04,48,6.70
2008,06,16,04,49,6.70
2008,06,16,04,50,6.60
2008,06,16,04,51,6.60
2008,06,16,04,52,6.60
2008,06,16,04,53,6.60
2008,06,16,04,54,6.60
2008,06,16,04,55,6.60
2008,06,16,04,56,6.60
2008,06,16,04,57,6.60
2008,06,16,04,58,6.60
2008,06,16,04,59,6.60
2008,06,16,05,00,6.60
2008,06,16,05,01,6.60
2008,06,16,05,02,6.60
2008,06,16,05,03,6.60
2008,06,16,05,04,6.60
2008,06,16,05,05,6.60
2008,06,16,05,06,6.60
2008,06,16,05,07,6.60
2008,06,16,05,08,6.60
2008,06,16,05,09,6.60
2008,06,16,05,10,6.60
2008,06,16,05,11,6.60
2008,06,16,05,12,6.60
2008,06,16,05,13,6.60
2008,06,16,05,14,6.60
2008,06,16,05,15,6.60
2008,06,16,05,16,6.60
2008,06,16,05,17,6.60
2008,06,16,05,18,6.70
2008,06,16,05,19,6.70
2008,06,16,05,20,6.60
2008,06,16,05,21,6.60
2008,06,16,05,22,6.60
2008,06,16,05,23,6.60
2008,06,16,05,24,6.60
2008,06,16,05,25,6.60
2008,06,16,05,26,6.60
2008,06,16,05,27,6.60
2008,06,16,05,28,6.60
2008,06,16,05,29,6.60
2008,06,16,05,30,6.50
2008,06,16,05,31,6.50
2008,06,16,05,32,6.50
2008,06,16,05,33,6.40
2008,06,16,05,34,6.40
2008,06,16,05,35,6.40
2008,06,16,05,36,6.40
2008,06,16,05,37,6.40
2008,06,16,05,38,6.40
2008,06,16,05,39,6.40
2008,06,16,05,40,6.40
2008,06,16,05,41,6.40
2008,06,16,05,42,6.40
2008,06,16,05,43,6.40
2008,06,16,05,44,6.40
2008,06,16,05,45,6.40
2008,06,16,05,46,6.40
2008,06,16,05,47,6.40
2008,06,16,05,48,6.40
2008,06,16,05,49,6.40
2008,06,16,05,50,6.50
2008,06,16,05,51,6.50
2008,06,16,05,52,6.50
2008,06,16,05,53,6.50
2008,06,16,05,54,6.50
2008,06,16,05,55,6.50
2008,06,16,05,56,6.50
2008,06,16,05,57,6.50
2008,06,16,05,58,6.60
2008,06,16,05,59,6.60
2008,06,16,06,00,6.60
2008,06,16,06,01,6.60
2008,06,16,06,02,6.60
2008,06,16,06,03,6.60
2008,06,16,06,04,6.60
2008,06,16,06,05,6.60
2008,06,16,06,06,6.60
2008,06,16,06,07,6.60
2008,06,16,06,08,6.60
2008,06,16,06,09,6.70
2008,06,16,06,10,6.70
2008,06,16,06,11,6.70
2008,06,16,06,12,6.70
2008,06,16,06,13,6.80
2008,06,16,06,14,6.80
2008,06,16,06,15,6.80
2008,06,16,06,16,6.80
2008,06,16,06,17,6.80
2008,06,16,06,18,6.90
2008,06,16,06,19,6.90
2008,06,16,06,20,6.90
2008,06,16,06,21,6.90
2008,06,16,06,22,6.90
2008,06,16,06,23,7.00
2008,06,16,06,24,7.00
2008,06,16,06,25,7.00
2008,06,16,06,26,7.10
2008,06,16,06,27,7.10
2008,06,16,06,28,7.10
2008,06,16,06,29,7.10
2008,06,16,06,30,7.20
2008,06,16,06,31,7.20
2008,06,16,06,32,7.20
2008,06,16,06,33,7.20
2008,06,16,06,34,7.20
2008,06,16,06,35,7.20
2008,06,16,06,36,7.20
2008,06,16,06,37,7.20
2008,06,16,06,38,7.30
2008,06,16,06,39,7.30
2008,06,16,06,40,7.40
2008,06,16,06,41,7.40
2008,06,16,06,42,7.50
2008,06,16,06,43,7.60
2008,06,16,06,44,7.60
2008,06,16,06,45,7.70
2008,06,16,06,46,7.80
2008,06,16,06,47,7.80
2008,06,16,06,48,7.90
2008,06,16,06,49,8.00
2008,06,16,06,50,8.20
2008,06,16,06,51,8.30
2008,06,16,06,52,8.40
2008,06,16,06,53,8.50
2008,06,16,06,54,8.50
2008,06,16,06,55,8.60
2008,06,16,06,56,8.70
2008,06,16,06,57,8.80
2008,06,16,06,58,8.90
2008,06,16,06,59,8.90
2008,06,16,07,00,9.00
2008,06,16,07,01,9.10
2008,06,16,07,02,9.10
2008,06,16,07,03,9.20
2008,06,16,07,04,9.30
2008,06,16,07,05,9.30
2008,06,16,07,06,9.40
2008,06,16,07,07,9.40
2008,06,16,07,08,9.60
2008,06,16,07,09,9.60
2008,06,16,07,10,9.70
2008,06,16,07,11,9.80
2008,06,16,07,12,9.90
2008,06,16,07,13,10.00
2008,06,16,07,14,10.10
2008,06,16,07,15,10.20
2008,06,16,07,16,10.30
2008,06,16,07,17,10.30
2008,06,16,07,18,10.40
2008,06,16,07,19,10.50
2008,06,16,07,20,10.60
2008,06,16,07,21,10.60
2008,06,16,07,22,10.70
2008,06,16,07,23,10.80
2008,06,16,07,24,10.80
2008,06,16,07,25,10.90
2008,06,16,07,26,10.90
2008,06,16,07,27,11.00
2008,06,16,07,28,11.10
2008,06,16,07,29,11.10
2008,06,16,07,30,11.20
2008,06,16,07,31,11.20
2008,06,16,07,32,11.30
2008,06,16,07,33,11.30
2008,06,16,07,34,11.40
2008,06,16,07,35,11.40
2008,06,16,07,36,11.50
2008,06,16,07,37,11.50
2008,06,16,07,38,11.60
2008,06,16,07,39,11.60
2008,06,16,07,40,11.60
2008,06,16,07,41,11.70
2008,06,16,07,42,11.70
2008,06,16,07,43,11.80
2008,06,16,07,44,11.80
2008,06,16,07,45,11.90
2008,06,16,07,46,11.90
2008,06,16,07,47,12.00
2008,06,16,07,48,12.00
2008,06,16,07,49,12.00
2008,06,16,07,50,12.10
2008,06,16,07,51,12.10
2008,06,16,07,52,12.10
2008,06,16,07,53,12.20
2008,06,16,07,54,12.20
2008,06,16,07,55,12.30
2008,06,16,07,56,12.30
2008,06,16,07,57,12.30
2008,06,16,07,58,12.40
2008,06,16,07,59,12.50
2008,06,16,08,00,12.60
2008,06,16,08,01,12.60
2008,06,16,08,02,12.70
2008,06,16,08,03,12.70
2008,06,16,08,04,12.80
2008,06,16,08,05,12.80
2008,06,16,08,06,12.80
2008,06,16,08,07,12.80
2008,06,16,08,08,12.90
2008,06,16,08,09,12.90
2008,06,16,08,10,12.90
2008,06,16,08,11,12.90
2008,06,16,08,12,12.90
2008,06,16,08,13,12.90
2008,06,16,08,14,12.90
2008,06,16,08,15,12.90
2008,06,16,08,16,12.90
2008,06,16,08,17,13.00
2008,06,16,08,18,13.00
2008,06,16,08,19,13.00
2008,06,16,08,20,13.00
2008,06,16,08,21,13.00
2008,06,16,08,22,13.10
2008,06,16,08,23,13.10
2008,06,16,08,24,13.10
2008,06,16,08,25,13.20
2008,06,16,08,26,13.30
2008,06,16,08,27,13.30
2008,06,16,08,28,13.30
2008,06,16,08,29,13.30
2008,06,16,08,30,13.40
2008,06,16,08,31,13.40
2008,06,16,08,32,13.40
2008,06,16,08,33,13.50
2008,06,16,08,34,13.50
2008,06,16,08,35,13.50
2008,06,16,08,36,13.60
2008,06,16,08,37,13.60
2008,06,16,08,38,13.70
2008,06,16,08,39,13.80
2008,06,16,08,40,13.80
2008,06,16,08,41,13.90
2008,06,16,08,42,13.90
2008,06,16,08,43,13.90
2008,06,16,08,44,13.80
2008,06,16,08,45,13.80
2008,06,16,08,46,13.90
2008,06,16,08,47,13.90
2008,06,16,08,48,13.90
2008,06,16,08,49,14.00
2008,06,16,08,50,14.00
2008,06,16,08,51,14.00
2008,06,16,08,52,14.10
2008,06,16,08,53,14.20
2008,06,16,08,54,14.20
2008,06,16,08,55,14.20
2008,06,16,08,56,14.20
2008,06,16,08,57,14.10
2008,06,16,08,58,14.10
2008,06,16,08,59,14.20
2008,06,16,09,00,14.20
2008,06,16,09,01,14.20
2008,06,16,09,02,14.20
2008,06,16,09,03,14.20
2008,06,16,09,04,14.30
2008,06,16,09,05,14.30
2008,06,16,09,06,14.30
2008,06,16,09,07,14.30
2008,06,16,09,08,14.40
2008,06,16,09,09,14.40
2008,06,16,09,10,14.50
2008,06,16,09,11,14.60
2008,06,16,09,12,14.70
2008,06,16,09,13,14.80
2008,06,16,09,14,14.90
2008,06,16,09,15,15.00
2008,06,16,09,16,15.00
2008,06,16,09,17,15.00
2008,06,16,09,18,15.00
2008,06,16,09,19,15.00
2008,06,16,09,20,15.00
2008,06,16,09,21,15.00
2008,06,16,09,22,15.00
2008,06,16,09,23,15.10
2008,06,16,09,24,15.00
2008,06,16,09,25,15.00
2008,06,16,09,26,15.10
2008,06,16,09,27,15.20
2008,06,16,09,28,15.20
2008,06,16,09,29,15.30
2008,06,16,09,30,15.30
2008,06,16,09,31,15.40
2008,06,16,09,32,15.40
2008,06,16,09,33,15.50
2008,06,16,09,34,15.60
2008,06,16,09,35,15.60
2008,06,16,09,36,15.60
2008,06,16,09,37,15.60
2008,06,16,09,38,15.60
2008,06,16,09,39,15.60
2008,06,16,09,40,15.60
2008,06,16,09,41,15.70
2008,06,16,09,42,15.70
2008,06,16,09,43,15.80
2008,06,16,09,44,15.80
2008,06,16,09,45,15.90
2008,06,16,09,46,15.90
2008,06,16,09,47,16.00
2008,06,16,09,48,16.10
2008,06,16,09,49,16.20
2008,06,16,09,50,16.20
2008,06,16,09,51,16.20
2008,06,16,09,52,16.10
2008,06,16,09,53,16.10
2008,06,16,09,54,16.00
2008,06,16,09,55,16.00
2008,06,16,09,56,16.10
2008,06,16,09,57,16.10
2008,06,16,09,58,16.20
2008,06,16,09,59,16.20
2008,06,16,10,00,16.40
2008,06,16,10,01,16.50
2008,06,16,10,02,16.60
2008,06,16,10,03,16.70
2008,06,16,10,04,16.80
2008,06,16,10,05,16.80
2008,06,16,10,06,16.90
2008,06,16,10,07,17.00
2008,06,16,10,08,17.00
2008,06,16,10,09,16.90
2008,06,16,10,10,16.90
2008,06,16,10,11,16.90
2008,06,16,10,12,16.90
2008,06,16,10,13,16.80
2008,06,16,10,14,16.80
2008,06,16,10,15,16.80
2008,06,16,10,16,16.80
2008,06,16,10,17,16.80
2008,06,16,10,18,16.70
2008,06,16,10,19,16.80
2008,06,16,10,20,16.80
2008,06,16,10,21,16.90
2008,06,16,10,22,16.90
2008,06,16,10,23,17.00
2008,06,16,10,24,17.10
2008,06,16,10,25,17.10
2008,06,16,10,26,17.20
2008,06,16,10,27,17.10
2008,06,16,10,28,17.20
2008,06,16,10,29,17.20
2008,06,16,10,30,17.20
2008,06,16,10,31,17.20
2008,06,16,10,32,17.20
2008,06,16,10,33,17.20
2008,06,16,10,34,17.30
2008,06,16,10,35,17.40
2008,06,16,10,36,17.40
2008,06,16,10,37,17.40
2008,06,16,10,38,17.40
2008,06,16,10,39,17.40
2008,06,16,10,40,17.40
2008,06,16,10,41,17.30
2008,06,16,10,42,17.30
2008,06,16,10,43,17.30
2008,06,16,10,44,17.30
2008,06,16,10,45,17.40
2008,06,16,10,46,17.40
2008,06,16,10,47,17.40
2008,06,16,10,48,17.40
2008,06,16,10,49,17.40
2008,06,16,10,50,17.50
2008,06,16,10,51,17.60
2008,06,16,10,52,17.70
2008,06,16,10,53,17.70
2008,06,16,10,54,17.70
2008,06,16,10,55,17.80
2008,06,16,10,56,17.80
2008,06,16,10,57,17.90
2008,06,16,10,58,17.90
2008,06,16,10,59,18.00
2008,06,16,11,00,17.90
2008,06,16,11,01,17.80
2008,06,16,11,02,17.90
2008,06,16,11,03,17.90
2008,06,16,11,04,17.90
2008,06,16,11,05,18.00
2008,06,16,11,06,18.10
2008,06,16,11,07,18.20
2008,06,16,11,08,18.20
2008,06,16,11,09,18.20
2008,06,16,11,10,18.10
2008,06,16,11,11,18.10
2008,06,16,11,12,18.00
2008,06,16,11,13,18.00
2008,06,16,11,14,18.10
2008,06,16,11,15,18.10
2008,06,16,11,16,18.00
2008,06,16,11,17,17.90
2008,06,16,11,18,17.90
2008,06,16,11,19,17.90
2008,06,16,11,20,17.90
2008,06,16,11,21,17.80
2008,06,16,11,22,17.80
2008,06,16,11,23,17.80
2008,06,16,11,24,17.80
2008,06,16,11,25,17.90
2008,06,16,11,26,18.10
2008,06,16,11,27,18.10
2008,06,16,11,28,18.10
2008,06,16,11,29,18.00
2008,06,16,11,30,17.90
2008,06,16,11,31,17.80
2008,06,16,11,32,17.80
2008,06,16,11,33,17.70
2008,06,16,11,34,17.60
2008,06,16,11,35,17.40
2008,06,16,11,36,17.40
2008,06,16,11,37,17.50
2008,06,16,11,38,17.40
2008,06,16,11,39,17.40
2008,06,16,11,40,17.30
2008,06,16,11,41,17.30
2008,06,16,11,42,17.30
2008,06,16,11,43,17.20
2008,06,16,11,44,17.30
2008,06,16,11,45,17.30
2008,06,16,11,46,17.30
2008,06,16,11,47,17.40
2008,06,16,11,48,17.60
2008,06,16,11,49,17.60
2008,06,16,11,50,17.50
2008,06,16,11,51,17.40
2008,06,16,11,52,17.30
2008,06,16,11,53,17.20
2008,06,16,11,54,17.20
2008,06,16,11,55,17.20
2008,06,16,11,56,17.20
2008,06,16,11,57,17.10
2008,06,16,11,58,17.10
2008,06,16,11,59,17.20
2008,06,16,12,00,17.20
2008,06,16,12,01,17.20
2008,06,16,12,02,17.20
2008,06,16,12,03,17.20
2008,06,16,12,04,17.10
2008,06,16,12,05,17.10
2008,06,16,12,06,17.10
2008,06,16,12,07,17.10
2008,06,16,12,08,17.10
2008,06,16,12,09,17.00
2008,06,16,12,10,17.20
2008,06,16,12,11,17.30
2008,06,16,12,12,17.20
2008,06,16,12,13,17.20
2008,06,16,12,14,17.20
2008,06,16,12,15,17.10
2008,06,16,12,16,17.10
2008,06,16,12,17,17.10
2008,06,16,12,18,17.10
2008,06,16,12,19,17.20
2008,06,16,12,20,17.30
2008,06,16,12,21,17.30
2008,06,16,12,22,17.30
2008,06,16,12,23,17.30
2008,06,16,12,24,17.30
2008,06,16,12,25,17.20
2008,06,16,12,26,17.30
2008,06,16,12,27,17.40
2008,06,16,12,28,17.50
2008,06,16,12,29,17.50
2008,06,16,12,30,17.70
2008,06,16,12,31,17.80
2008,06,16,12,32,17.80
2008,06,16,12,33,17.70
2008,06,16,12,34,17.60
2008,06,16,12,35,17.50
2008,06,16,12,36,17.40
2008,06,16,12,37,17.30
2008,06,16,12,38,17.20
2008,06,16,12,39,17.10
2008,06,16,12,40,17.10
2008,06,16,12,41,17.20
2008,06,16,12,42,17.20
2008,06,16,12,43,17.30
2008,06,16,12,44,17.30
2008,06,16,12,45,17.40
2008,06,16,12,46,17.60
2008,06,16,12,47,17.60
2008,06,16,12,48,17.70
2008,06,16,12,49,17.70
2008,06,16,12,50,17.70
2008,06,16,12,51,17.60
2008,06,16,12,52,17.50
2008,06,16,12,53,17.50
2008,06,16,12,54,17.50
2008,06,16,12,55,17.50
2008,06,16,12,56,17.60
2008,06,16,12,57,17.50
2008,06,16,12,58,17.60
2008,06,16,12,59,17.60
2008,06,16,13,00,17.60
2008,06,16,13,01,17.50
2008,06,16,13,02,17.40
2008,06,16,13,03,17.40
2008,06,16,13,04,17.40
2008,06,16,13,05,17.40
2008,06,16,13,06,17.40
2008,06,16,13,07,17.50
2008,06,16,13,08,17.50
2008,06,16,13,09,17.60
2008,06,16,13,10,17.70
2008,06,16,13,11,17.80
2008,06,16,13,12,17.80
2008,06,16,13,13,17.90
2008,06,16,13,14,18.10
2008,06,16,13,15,18.30
2008,06,16,13,16,18.40
2008,06,16,13,17,18.30
2008,06,16,13,18,18.20
2008,06,16,13,19,18.00
2008,06,16,13,20,17.90
2008,06,16,13,21,17.80
2008,06,16,13,22,17.70
2008,06,16,13,23,17.70
2008,06,16,13,24,17.60
2008,06,16,13,25,17.50
2008,06,16,13,26,17.60
2008,06,16,13,27,17.70
2008,06,16,13,28,17.80
2008,06,16,13,29,17.80
2008,06,16,13,30,17.90
2008,06,16,13,31,18.00
2008,06,16,13,32,17.90
2008,06,16,13,33,17.90
2008,06,16,13,34,17.80
2008,06,16,13,35,17.80
2008,06,16,13,36,17.80
2008,06,16,13,37,17.70
2008,06,16,13,38,17.80
2008,06,16,13,39,17.90
2008,06,16,13,40,17.90
2008,06,16,13,41,17.90
2008,06,16,13,42,18.00
2008,06,16,13,43,18.00
2008,06,16,13,44,18.10
2008,06,16,13,45,18.00
2008,06,16,13,46,18.20
2008,06,16,13,47,18.30
2008,06,16,13,48,18.50
2008,06,16,13,49,18.60
2008,06,16,13,50,18.70
2008,06,16,13,51,18.80
2008,06,16,13,52,18.80
2008,06,16,13,53,18.70
2008,06,16,13,54,18.60
2008,06,16,13,55,18.60
2008,06,16,13,56,18.50
2008,06,16,13,57,18.40
2008,06,16,13,58,18.40
2008,06,16,13,59,18.20
2008,06,16,14,00,18.20
2008,06,16,14,01,18.20
2008,06,16,14,02,18.40
2008,06,16,14,03,18.50
2008,06,16,14,04,18.50
2008,06,16,14,05,18.60
2008,06,16,14,06,18.60
2008,06,16,14,07,18.60
2008,06,16,14,08,18.70
2008,06,16,14,09,18.90
2008,06,16,14,10,19.10
2008,06,16,14,11,19.30
2008,06,16,14,12,19.40
2008,06,16,14,13,19.50
2008,06,16,14,14,19.60
2008,06,16,14,15,19.60
2008,06,16,14,16,19.70
2008,06,16,14,17,19.60
2008,06,16,14,18,19.40
2008,06,16,14,19,19.30
2008,06,16,14,20,19.20
2008,06,16,14,21,19.20
2008,06,16,14,22,19.10
2008,06,16,14,23,19.00
2008,06,16,14,24,19.00
2008,06,16,14,25,19.00
2008,06,16,14,26,19.00
2008,06,16,14,27,19.00
2008,06,16,14,28,19.10
2008,06,16,14,29,19.10
2008,06,16,14,30,19.00
2008,06,16,14,31,19.00
2008,06,16,14,32,19.00
2008,06,16,14,33,19.20
2008,06,16,14,34,19.30
2008,06,16,14,35,19.40
2008,06,16,14,36,19.50
2008,06,16,14,37,19.60
2008,06,16,14,38,19.70
2008,06,16,14,39,19.80
2008,06,16,14,40,19.80
2008,06,16,14,41,19.90
2008,06,16,14,42,19.90
2008,06,16,14,43,20.00
2008,06,16,14,44,20.10
2008,06,16,14,45,20.20
2008,06,16,14,46,20.20
2008,06,16,14,47,20.30
2008,06,16,14,48,20.30
2008,06,16,14,49,20.30
2008,06,16,14,50,20.40
2008,06,16,14,51,20.50
2008,06,16,14,52,20.60
2008,06,16,14,53,20.60
2008,06,16,14,54,20.70
2008,06,16,14,55,20.70
2008,06,16,14,56,20.60
2008,06,16,14,57,20.60
2008,06,16,14,58,20.50
2008,06,16,14,59,20.50
2008,06,16,15,00,20.60
2008,06,16,15,01,20.60
2008,06,16,15,02,20.80
2008,06,16,15,03,20.80
2008,06,16,15,04,20.90
2008,06,16,15,05,20.90
2008,06,16,15,06,20.90
2008,06,16,15,07,20.70
2008,06,16,15,08,20.60
2008,06,16,15,09,20.40
2008,06,16,15,10,20.20
2008,06,16,15,11,20.10
2008,06,16,15,12,20.10
2008,06,16,15,13,20.10
2008,06,16,15,14,20.10
2008,06,16,15,15,20.10
2008,06,16,15,16,20.10
2008,06,16,15,17,20.10
2008,06,16,15,18,20.20
2008,06,16,15,19,20.30
2008,06,16,15,20,20.30
2008,06,16,15,21,20.20
2008,06,16,15,22,20.20
2008,06,16,15,23,20.20
2008,06,16,15,24,20.20
2008,06,16,15,25,20.20
2008,06,16,15,26,20.10
2008,06,16,15,27,20.20
2008,06,16,15,28,20.30
2008,06,16,15,29,20.30
2008,06,16,15,30,20.30
2008,06,16,15,31,20.30
2008,06,16,15,32,20.20
2008,06,16,15,33,20.20
2008,06,16,15,34,20.10
2008,06,16,15,35,20.10
2008,06,16,15,36,20.10
2008,06,16,15,37,20.10
2008,06,16,15,38,20.20
2008,06,16,15,39,20.30
2008,06,16,15,40,20.30
2008,06,16,15,41,20.30
2008,06,16,15,42,20.30
2008,06,16,15,43,20.20
2008,06,16,15,44,20.10
2008,06,16,15,45,20.10
2008,06,16,15,46,20.00
2008,06,16,15,47,19.90
2008,06,16,15,48,19.90
2008,06,16,15,49,19.80
2008,06,16,15,50,19.80
2008,06,16,15,51,19.90
2008,06,16,15,52,19.90
2008,06,16,15,53,20.00
2008,06,16,15,54,20.10
2008,06,16,15,55,20.10
2008,06,16,15,56,20.10
2008,06,16,15,57,20.10
2008,06,16,15,58,20.00
2008,06,16,15,59,19.90
2008,06,16,16,00,19.80
2008,06,16,16,01,19.70
2008,06,16,16,02,19.50
2008,06,16,16,03,19.50
2008,06,16,16,04,19.50
2008,06,16,16,05,19.50
2008,06,16,16,06,19.50
2008,06,16,16,07,19.60
2008,06,16,16,08,19.80
2008,06,16,16,09,19.80
2008,06,16,16,10,19.80
2008,06,16,16,11,19.90
2008,06,16,16,12,19.90
2008,06,16,16,13,19.90
2008,06,16,16,14,19.90
2008,06,16,16,15,19.90
2008,06,16,16,16,20.00
2008,06,16,16,17,20.00
2008,06,16,16,18,19.90
2008,06,16,16,19,19.70
2008,06,16,16,20,19.60
2008,06,16,16,21,19.40
2008,06,16,16,22,19.30
2008,06,16,16,23,19.20
2008,06,16,16,24,19.10
2008,06,16,16,25,19.10
2008,06,16,16,26,19.10
2008,06,16,16,27,19.00
2008,06,16,16,28,19.00
2008,06,16,16,29,19.00
2008,06,16,16,30,19.00
2008,06,16,16,31,19.00
2008,06,16,16,32,19.00
2008,06,16,16,33,19.10
2008,06,16,16,34,19.10
2008,06,16,16,35,19.10
2008,06,16,16,36,19.10
2008,06,16,16,37,19.10
2008,06,16,16,38,19.10
2008,06,16,16,39,19.10
2008,06,16,16,40,19.10
2008,06,16,16,41,19.10
2008,06,16,16,42,19.00
2008,06,16,16,43,18.90
2008,06,16,16,44,18.90
2008,06,16,16,45,18.90
2008,06,16,16,46,18.90
2008,06,16,16,47,18.90
2008,06,16,16,48,18.90
2008,06,16,16,49,18.90
2008,06,16,16,50,19.00
2008,06,16,16,51,19.10
2008,06,16,16,52,19.10
2008,06,16,16,53,19.10
2008,06,16,16,54,19.20
2008,06,16,16,55,19.10
2008,06,16,16,56,19.20
2008,06,16,16,57,19.20
2008,06,16,16,58,19.20
2008,06,16,16,59,19.20
2008,06,16,17,00,19.20
2008,06,16,17,01,19.10
2008,06,16,17,02,19.10
2008,06,16,17,03,19.10
2008,06,16,17,04,19.00
2008,06,16,17,05,19.00
2008,06,16,17,06,18.90
2008,06,16,17,07,18.90
2008,06,16,17,08,18.90
2008,06,16,17,09,18.90
2008,06,16,17,10,18.90
2008,06,16,17,11,19.00
2008,06,16,17,12,19.00
2008,06,16,17,13,19.10
2008,06,16,17,14,19.10
2008,06,16,17,15,19.20
2008,06,16,17,16,19.30
2008,06,16,17,17,19.30
2008,06,16,17,18,19.30
2008,06,16,17,19,19.40
2008,06,16,17,20,19.50
2008,06,16,17,21,19.50
2008,06,16,17,22,19.70
2008,06,16,17,23,19.70
2008,06,16,17,24,19.80
2008,06,16,17,25,19.80
2008,06,16,17,26,19.70
2008,06,16,17,27,19.70
2008,06,16,17,28,19.50
2008,06,16,17,29,19.40
2008,06,16,17,30,19.30
2008,06,16,17,31,19.10
2008,06,16,17,32,19.00
2008,06,16,17,33,18.90
2008,06,16,17,34,18.80
2008,06,16,17,35,18.80
2008,06,16,17,36,18.80
2008,06,16,17,37,18.80
2008,06,16,17,38,18.80
2008,06,16,17,39,18.90
2008,06,16,17,40,18.90
2008,06,16,17,41,18.90
2008,06,16,17,42,18.90
2008,06,16,17,43,18.90
2008,06,16,17,44,18.90
2008,06,16,17,45,18.90
2008,06,16,17,46,18.90
2008,06,16,17,47,18.90
2008,06,16,17,48,18.90
2008,06,16,17,49,18.90
2008,06,16,17,50,18.80
2008,06,16,17,51,18.70
2008,06,16,17,52,18.60
2008,06,16,17,53,18.50
2008,06,16,17,54,18.40
2008,06,16,17,55,18.30
2008,06,16,17,56,18.30
2008,06,16,17,57,18.20
2008,06,16,17,58,18.20
2008,06,16,17,59,18.20
2008,06,16,18,00,18.10
2008,06,16,18,01,18.10
2008,06,16,18,02,18.10
2008,06,16,18,03,18.00
2008,06,16,18,04,18.00
2008,06,16,18,05,17.90
2008,06,16,18,06,17.90
2008,06,16,18,07,17.80
2008,06,16,18,08,17.80
2008,06,16,18,09,17.80
2008,06,16,18,10,17.80
2008,06,16,18,11,17.80
2008,06,16,18,12,17.70
2008,06,16,18,13,17.70
2008,06,16,18,14,17.70
2008,06,16,18,15,17.60
2008,06,16,18,16,17.60
2008,06,16,18,17,17.60
2008,06,16,18,18,17.70
2008,06,16,18,19,17.60
2008,06,16,18,20,17.60
2008,06,16,18,21,17.60
2008,06,16,18,22,17.60
2008,06,16,18,23,17.60
2008,06,16,18,24,17.50